Regional Weather Roundup
Issued by NWS Goodland, KS

Home | Current Version | Previous Version | Text Only | Print | Product List | Glossary Off
Versions: 1 2 3 4 5 6 7 8 9 10 11 12 13 14 15 16 17 18 19 20 21 22 23 24 25 26 27 28 29 30 31 32 33 34 35 36 37 38 39 40 41 42 43 44 45 46 47 48 49 50

597
ASUS43 KGLD 301759
RWRGLD

GOODLAND FORECAST AREA HOURLY WEATHER ROUNDUP
NATIONAL WEATHER SERVICE GOODLAND KS
1200 PM MDT SUN APR 30 2017

...OFFICIAL OBSERVATIONS...

CITY           SKY/WX    TMP DP  RH WIND       PRES   REMARKS
GOODLAND KS    SNOW      31  31 100 N31G40    29.79F VSB 1/4 WCI  16
HILL CITY KS   LGT SNOW  35  34  96 N24G33    29.65S FOG
IMPERIAL NEB   CLOUDY    43  23  45 N29G37    29.83F
MCCOOK NEB     FOG       33  33 100 N28       29.77F VSB<1/4 WCI  20
AKRON CO       CLOUDY    47  16  29 N38G46    29.89F
BURLINGTON CO  NOT AVBL
LIMON CO       SUNNY     41  27  57 N38G47    29.88F
$$

...UNOFFICIAL OBSERVATIONS...

CITY           SKY/WX    TMP DP  RH WIND       PRES   REMARKS
LENORA KS        N/A     32  32 100 MISG        N/A
TRENTON NEB      N/A     32  32 100 N16         N/A
KIT CARSON CO    N/A     43  25  48 CALM        N/A
YUMA CO        FAIR      45  21  39 N32G44    29.86F
$$




USA.gov is the U.S. government's official web portal to all federal, state and local government web resources and services.